Regional Weather Roundup
Issued by NWS

Home | Current Version | Previous Version | Graphics & Text | Print | Product List | Glossary On
Versions: 1 2 3 4 5 6 7 8 9 10 11 12 13 14 15 16 17 18 19 20 21 22 23 24 25 26 27 28 29 30 31 32 33 34 35 36 37 38 39 40 41 42 43 44 45 46 47 48 49 50
000
ASUS43 KBIS 021110
RWRND

NORTH DAKOTA REGIONAL WEATHER ROUNDUP
NATIONAL WEATHER SERVICE BISMARCK ND
600 AM CDT WED SEP 02 2015

NOTE: "FAIR" INDICATES FEW OR NO CLOUDS BELOW 12,000 FEET WITH NO
SIGNIFICANT WEATHER AND/OR OBSTRUCTIONS TO VISIBILITY.


NDZ001>003-009>011-017-021200-
NORTHWEST NORTH DAKOTA

CITY           SKY/WX    TMP DP  RH WIND       PRES   REMARKS
WILLISTON      CLEAR     57  45  64 N6        29.77S
MINOT          CLEAR     62  59  90 SE5       29.77S
$$

NDZ018>021-031>035-040>046-021200-
SOUTHWEST NORTH DAKOTA

CITY           SKY/WX    TMP DP  RH WIND       PRES   REMARKS
BISMARCK       CLEAR     62  61  96 E5        29.80R
DICKINSON      CLEAR     59  52  77 S8        29.79F
GARRISON         N/A     58  56  93 E3        29.78F
HETTINGER ARPT PTCLDY    50  47  89 SW6       29.82F
$$

NDZ004>008-012>016-024-026-027-054-021200-
NORTHEAST NORTH DAKOTA

CITY           SKY/WX    TMP DP  RH WIND       PRES   REMARKS
GRAND FORKS    CLOUDY    65  63  93 S6        29.82S
GRND FRKS AFB  FOG       64  64 100 S7        29.82S VSB 1/2
DEVILS LAKE    CLEAR     68  61  77 SE7       29.79S
$$

NDZ022-023-025-028>030-036>039-047>053-021200-
SOUTHEAST NORTH DAKOTA

CITY           SKY/WX    TMP DP  RH WIND       PRES   REMARKS
FARGO          CLEAR     69  66  90 SE9       29.83F
JAMESTOWN      CLEAR     64  61  90 SE6       29.82R
$$



USA.gov is the U.S. government's official web portal to all federal, state and local government web resources and services.